Tracking 27126 objects as of 30-Mar-2023
HD Live streaming from Space Station
objects crossing your sky now

STARLINK-4679

Track STARLINK-4679 now!
10-day predictions
STARLINK-4679 is classified as:


NORAD ID: 53782
Int'l Code: 2022-111K
Perigee: 545.9 km
Apogee: 547.7 km
Inclination: 53.2 °
Period: 95.4 minutes
Semi major axis: 6917 km
RCS: Unknown
Launch date: September 11, 2022
Source: United States (US)
Launch site: AIR FORCE EASTERN TEST RANGE (AFETR)
Your satellite tracking list
Your tracking list is empty




NASA's NSSDC Master Catalog

Two Line Element Set (TLE):
1 53782U 22111K   23089.27263679  .00000046  00000-0  20951-4 0  9997
2 53782  53.2182  61.9342 0001300  89.0479 271.0662 15.08851320 30532
Source of the keplerian elements: AFSPC